User: anonymous   Login
Location: San Vito
(41.8833°N, 12.9833°E)
Time: 10:21:19
(UTC+00:00)
Language:

Cosmos 2082 Rocket - Orbit

View from above orbital plane
View from above orbital plane
View from above satellite
View from above satellite

Ground track
Ground track

The orbit data is extracted from the following two-line orbital elements,

1 20625U 90046B   20018.46919749 +.00000023 +00000-0 +36533-4 0  9993
2 20625 070.9993 325.1084 0012339 116.0176 244.2218 14.14645695531262
Epoch (UTC): 18 January 2020 11:15:38
Eccentricity: 0.0012339
inclination: 70.9993°
perigee height: 834 km
apogee height: 852 km
right ascension of ascending node: 325.1084°
argument of perigee: 116.0176°
revolutions per day: 14.14645695
mean anomaly at epoch: 244.2218°
orbit number at epoch: 53126

The dashed part of the orbit path shows where the satellite is in the earth's shadow,  

DLR